Welcome to the New NWS' Forecast!
Most changes are behind the scenes, but click here for differences you might notice.

Regional Weather Roundup (RWR)

Issued by Fort Worth/Dallas, TX (FWD)

                            
233 
ASUS44 KFWD 201303
RWRFWD
NORTH TEXAS HOURLY WEATHER ROUNDUP
NATIONAL WEATHER SERVICE FORT WORTH TX
800 AM CDT MON AUG 20 2018

NOTE: "FAIR" INDICATES FEW OR NO CLOUDS BELOW 12,000 FEET WITH NO
SIGNIFICANT WEATHER AND/OR OBSTRUCTIONS TO VISIBILITY.

TXZ118-119-201400-
DALLAS/FORT WORTH METROPLEX
  
CITY           SKY/WX    TMP DP  RH WIND       PRES   REMARKS
DFW AIRPORT    PTSUNNY   81  70  69 W14       29.96R                  
DALLAS LOVE    PTSUNNY   82  72  71 SW8       29.96R                  
FTW MEACHAM    TSTM      76  74  93 N9        29.99R                  
DAL-EXECUTIVE  FAIR      82  72  71 SW9       29.96R                  
FTW-ALLIANCE   CLOUDY    81  70  69 W15       30.00R                  
FTW-SPINKS     PTSUNNY   81  72  74 W12       30.01R                  
ARLINGTON      FAIR      81  74  79 SW9       29.98R                  
GRAND PRAIRIE  SUNNY     81  70  69 SW12      29.99R                  
ADDISON        MOSUNNY   81  70  69 W5        29.96R                  
MESQUITE       SUNNY     77  73  88 S7        29.96R                  
LANCASTER      FAIR      78  72  82 S3        29.97R                  
$$

TXZ091>094-102>105-117-120-121-131>134-201400-
NORTH CENTRAL TEXAS
  
CITY           SKY/WX    TMP DP  RH WIND       PRES   REMARKS
SHRMAN/DENISON FAIR      75  70  86 NW9       29.98R                  
GAINESVILLE    FAIR      72  64  77 NW6       30.01R                  
BOWIE          FAIR      71  63  76 NW12      30.03R                  
BRIDGEPORT     FAIR      76  64  65 N8        30.05R                  
DECATUR        FAIR      74  65  73 NW8       30.03R                  
DENTON         FAIR      76  69  79 NW13      29.99R                  
MCKINNEY       FAIR      80  71  74 SW10      29.93R                  
BONHAM         FAIR      76  72  87 SW7       29.94R                  
GREENVILLE     FAIR      81  72  74 S10       29.95R                  
ROCKWALL       FAIR      79  73  82 SW10      29.96R                  
TERRELL        FAIR      79  73  82 SW9       29.96R                  
WAXAHACHIE     FAIR      78  73  84 SW7       29.99R                  
CLEBURNE       PTSUNNY   77  73  88 CALM      30.02R                  
GRANBURY       RAIN      75  69  81 NW5       30.02S                  
$$

TXZ083>090-098>101-113>116-127>130-139>142-154-155-201400-
WESTERN NORTH TEXAS
  
CITY           SKY/WX    TMP DP  RH WIND       PRES   REMARKS
WICHITA FALLS  FAIR      72  59  63 NW8       30.03R                  
WF-KICKAPOO    FAIR      73  59  61 N13       30.06R                  
VERNON         FAIR      71  60  68 NW12      30.07R                  
ABILENE        FAIR      75  64  68 N16       30.10R                  
GRAHAM         FAIR      73  63  72 NW5       30.05R                  
BRECKENRIDGE   FAIR      75  66  74 N12       30.06R                  
CISCO          FAIR      73 -36   1 NW8G14    30.08R                  
EASTLAND       FAIR      73  69  89 NW7       30.06R                  
RANGER         FAIR      72  71  95 SW3       30.05R                  
MINERAL WELLS  FAIR      72  69  90 N8        30.00R                  
STEPHENVILLE   FAIR      76  67  73 CALM      30.06R                  
COMANCHE       FAIR      75  71  85 MISG      30.05R                  
BROWNWOOD      FAIR      75  70  83 N5        30.06R                  
COLEMAN        FAIR      73  66  78 CALM      30.07R                  
BRADY          FAIR      75  70  83 S7        30.06R                  
$$

TXZ143>147-156>162-174-175-201400-
CENTRAL TEXAS
  
CITY           SKY/WX    TMP DP  RH WIND       PRES   REMARKS
WACO           PTSUNNY   80  73  79 S7        29.99R                  
WACO-TSTC      MOSUNNY   79  75  89 SW7       29.99                   
WACO-MCGREGOR  CLOUDY    79  74  84 S5        30.00R                  
HILLSBORO      FAIR      78  75  90 SW5       29.99R                  
CORSICANA      PTSUNNY   80  74  81 SW9       29.99R                  
MEXIA          PTSUNNY   78  73  83 S10G23    29.98R                  
HEARNE         FAIR      79  75  87 S3        30.00R                  
CAMERON        FAIR      80  74  82 SW7       29.99R                  
TEMPLE         FAIR      79  74  84 S7        30.00R                  
KILLEEN        CLOUDY    78  71  77 S5        30.00R                  
KILLEEN-SKYLRK FAIR      79  72  79 SW7       30.01R                  
FORT HOOD      CLOUDY    79  71  74 S8        29.97R                  
GATESVILLE     FAIR      79  72  78 CALM      30.03R                  
HAMILTON       PTSUNNY   78  73  83 NW5       30.05R                  
LAMPASAS       FAIR      76  71  83 CALM      30.01R                  
$$

TXZ095>097-106>112-122>126-135>138-148>153-164>167-201400-
EAST TEXAS
  
CITY           SKY/WX    TMP DP  RH WIND       PRES   REMARKS
SULPHUR SPRNGS FAIR      80  73  79 SW6G18    29.96R                  
MOUNT PLEASANT FAIR      80  71  74 SW7       29.95R                  
GILMER           N/A    N/A N/A N/A MISG        N/A                   
MINEOLA        FAIR      81  73  78 SW12      29.95R                  
TYLER          FAIR      81  75  82 SW14      29.96R                  
LONGVIEW       FAIR      82  75  79 SW8       29.95R                  
MARSHALL       FAIR      78  71  78 SW6       29.98R                  
ATHENS         FAIR      79  73  83 CALM      29.97R                  
PALESTINE      FAIR      81  75  81 S7        30.00R                  
JACKSONVILLE   PTSUNNY   80  74  83 SW8G17    30.01R                  
HENDERSON      PTSUNNY   80  74  81 SW5       29.99R                  
CENTER         PTSUNNY   79  75  87 S7        29.98S                  
NACOGDOCHES      N/A     80  75  84 SW6         N/A                   
LUFKIN         FAIR      79  76  90 SW3       29.99R                  
$$

SUPPLEMENTAL OBSERVATIONS (NWS FORT WORTH AREA)
  
CITY           SKY/WX    TMP DP  RH WIND       PRES   REMARKS
$$

SUPPLEMENTAL OBSERVATIONS (NWS NORMAN AREA)
  
CITY           SKY/WX    TMP DP  RH WIND       PRES   REMARKS
GOODLETT         N/A     69  58  69 W6        30.10                   
ODELL            N/A     69  60  75 NW13      30.08                   
CROWELL          N/A     71  61  69 NW8       30.10                   
KNOX CITY        N/A     72  59  62 N3        30.11                   
SEYMOUR          N/A     71  59  65 NW6       30.09                   
$$

SUPPLEMENTAL OBSERVATIONS (NWS SAN ANGELO AREA)
  
CITY           SKY/WX    TMP DP  RH WIND       PRES   REMARKS
WEINERT          N/A     70  60  68 N5        30.11                   
HASKELL          N/A     69  60  71 N6        30.11                   
THROCKMORTON     N/A     72  60  65 N5        30.10                   
STAMFORD         N/A     71  65  80 N8        30.11                   
CLYDE            N/A     72  67  83 N7        30.12                   
$$

SUPPLEMENTAL OBSERVATIONS (NWS SHREVEPORT AREA)
  
CITY           SKY/WX    TMP DP  RH WIND       PRES   REMARKS
$$

SUPPLEMENTAL OBSERVATIONS ARE A COLLECTION OF AUTOMATED INSTRUMENTS
THAT ARE MAINTAINED BY A VARIETY OF FEDERAL AND STATE AGENCIES. 
CERTAIN ELEMENTS...SUCH AS HUMIDITY VALUES AND SUSTAINED WIND 
SPEEDS...MAY BE APPROXIMATED.